📊 Raw Sensor Data
Showing records 42626 to 42650 of 85,003 total
| ID | Distance (ft) | Battery V | Battery A | Int Temp (°F) | Int Humid (%) | Ext Temp (°F) | Solar V | RSSI | SNR | Time Stamp |
|---|---|---|---|---|---|---|---|---|---|---|
| 42390 | 14.9 | 4.04 | 6 | 77 | 52 | 71 | 4.50 | -79 | 7 | 06/02/2025 07:45 PM |
| 42389 | 14.9 | 4.00 | 10 | 80 | 52 | 74 | 4.60 | -76 | 8 | 06/02/2025 07:30 PM |
| 42388 | 15.0 | 4.01 | -10 | 82 | 51 | 75 | 4.50 | -74 | 8 | 06/02/2025 07:15 PM |
| 42387 | 15.0 | 4.02 | 11 | 84 | 50 | 77 | 4.50 | -75 | 8 | 06/02/2025 07:00 PM |
| 42386 | 15.0 | 4.05 | 40 | 86 | 50 | 79 | 4.50 | -78 | 8 | 06/02/2025 06:45 PM |
| 42385 | 15.0 | 4.01 | 0 | 87 | 50 | 80 | 5.10 | -77 | 8 | 06/02/2025 06:30 PM |
| 42384 | 15.0 | 4.14 | 0 | 88 | 50 | 80 | 5.10 | -77 | 7 | 06/02/2025 06:15 PM |
| 42383 | 15.0 | 4.00 | 0 | 90 | 50 | 82 | 5.10 | -76 | 8 | 06/02/2025 06:00 PM |
| 42382 | 15.0 | 4.00 | 0 | 90 | 50 | 82 | 5.10 | -75 | 8 | 06/02/2025 05:45 PM |
| 42381 | 15.0 | 4.00 | 0 | 94 | 48 | 85 | 5.10 | -75 | 8 | 06/02/2025 05:15 PM |
| 42380 | 15.0 | 4.00 | 0 | 95 | 47 | 85 | 5.10 | -75 | 7 | 06/02/2025 05:00 PM |
| 42379 | 15.0 | 4.00 | 0 | 95 | 47 | 87 | 5.10 | -77 | 7 | 06/02/2025 04:45 PM |
| 42378 | 15.0 | 4.00 | 0 | 95 | 47 | 86 | 5.10 | -76 | 7 | 06/02/2025 04:30 PM |
| 42377 | 15.1 | 4.00 | 0 | 96 | 46 | 86 | 5.10 | -76 | 8 | 06/02/2025 04:15 PM |
| 42376 | 15.1 | 4.00 | 0 | 97 | 46 | 87 | 5.10 | -79 | 8 | 06/02/2025 04:00 PM |
| 42375 | 15.1 | 4.00 | 0 | 99 | 45 | 89 | 5.10 | -75 | 8 | 06/02/2025 03:45 PM |
| 42374 | 15.1 | 4.00 | 0 | 99 | 44 | 91 | 5.10 | -75 | 8 | 06/02/2025 03:30 PM |
| 42373 | 15.1 | 4.00 | 0 | 99 | 44 | 88 | 5.10 | -77 | 7 | 06/02/2025 03:15 PM |
| 42372 | 15.1 | 4.00 | 0 | 99 | 43 | 90 | 5.10 | -75 | 8 | 06/02/2025 03:00 PM |
| 42371 | 15.1 | 4.00 | 0 | 99 | 42 | 94 | 5.10 | -75 | 8 | 06/02/2025 02:45 PM |
| 42370 | 15.1 | 4.05 | 0 | 98 | 42 | 86 | 5.10 | -75 | 8 | 06/02/2025 02:30 PM |
| 42369 | 15.1 | 4.04 | 0 | 96 | 41 | 89 | 5.10 | -74 | 8 | 06/02/2025 02:00 PM |
| 42368 | 15.1 | 4.11 | 0 | 95 | 41 | 90 | 5.10 | -76 | 8 | 06/02/2025 01:45 PM |
| 42367 | 15.1 | 4.00 | 0 | 93 | 41 | 86 | 5.10 | -74 | 7 | 06/02/2025 01:30 PM |
| 42366 | 15.1 | 4.00 | 0 | 93 | 41 | 88 | 5.10 | -76 | 8 | 06/02/2025 01:15 PM |